BADR-4

Last updated on Sun Dec 21 2025 00:02:52 GMT+0000 (Coordinated Universal Time)

1 29526U 06051A 25354.27111976 .00000168 00000+0 00000+0 0 9992 2 29526 1.5424 83.1059 0007560 210.3193 279.5283 1.00269277 49479
UTC large
Height (km)
Speed (km/s)
/
Latitude / Longitude
Inclination (degrees)
Orbital Period (minutes)
Azimuth
Elevation
Range (km)
Doppler Factor

Next 0 passes for location: London (51.5072 / 0.1276)

Sorry there are no passes over London.